| time (UTC) | temp C | wind direction | speed KPH | gust KPH | rain 1hr cm | rain 24hr cm | rain mn cm | humidity % | barometer mb |
| 20260504185824 | 29 | 247 | 4.8 | 8.0 | 0.00 | 0.00 | 0.00 | 30 | 1014.6 |
| 20260504185321 | 28 | 265 | 1.6 | 9.7 | 0.00 | 0.00 | 0.00 | 33 | 1014.8 |
| 20260504184817 | 28 | 8 | 6.4 | 8.0 | 0.00 | 0.00 | 0.00 | 34 | 1015.0 |
| 20260504184313 | 28 | 359 | 3.2 | 9.7 | 0.00 | 0.00 | 0.00 | 31 | 1014.9 |
| 20260504183809 | 28 | 152 | 3.2 | 4.8 | 0.00 | 0.00 | 0.00 | 34 | 1015.0 |
| 20260504183307 | 28 | 180 | 1.6 | 12.9 | 0.00 | 0.00 | 0.00 | 32 | 1014.9 |
| 20260504182804 | 28 | 105 | 3.2 | 8.0 | 0.00 | 0.00 | 0.00 | 33 | 1015.1 |
| 20260504182301 | 28 | 303 | 1.6 | 6.4 | 0.00 | 0.00 | 0.00 | 34 | 1015.3 |
| 20260504181759 | 28 | 89 | 3.2 | 6.4 | 0.00 | 0.00 | 0.00 | 32 | 1015.0 |
| 20260504181256 | 27 | 351 | 3.2 | 4.8 | 0.00 | 0.00 | 0.00 | 33 | 1015.2 |
| 20260504180755 | 28 | 53 | 1.6 | 8.0 | 0.00 | 0.00 | 0.00 | 35 | 1015.5 |
| 20260504180253 | 28 | 193 | 4.8 | 6.4 | 0.00 | 0.00 | 0.00 | 33 | 1015.6 |
| 20260504175750 | 28 | 142 | 0.0 | 6.4 | 0.00 | 0.00 | 0.00 | 32 | 1015.5 |
| 20260504175247 | 28 | 119 | 4.8 | 9.7 | 0.00 | 0.00 | 0.00 | 32 | 1015.6 |
| 20260504174745 | 27 | 57 | 3.2 | 6.4 | 0.00 | 0.00 | 0.00 | 30 | 1015.8 |
| 20260504174243 | 27 | 93 | 3.2 | 6.4 | 0.00 | 0.00 | 0.00 | 33 | 1015.6 |
| 20260504173739 | 27 | 135 | 4.8 | 8.0 | 0.00 | 0.00 | 0.00 | 32 | 1015.9 |
| 20260504173236 | 27 | 44 | 0.0 | 8.0 | 0.00 | 0.00 | 0.00 | 33 | 1015.9 |
| 20260504172733 | 28 | 146 | 3.2 | 4.8 | 0.00 | 0.00 | 0.00 | 34 | 1015.9 |
| 20260504172229 | 27 | 216 | 0.0 | 9.7 | 0.00 | 0.00 | 0.00 | 32 | 1015.9 |
| 20260504171726 | 27 | 45 | 3.2 | 8.0 | 0.00 | 0.00 | 0.00 | 32 | 1016.0 |
| 20260504171223 | 27 | 254 | 1.6 | 3.2 | 0.00 | 0.00 | 0.00 | 31 | 1016.2 |
| 20260504170720 | 26 | 92 | 3.2 | 4.8 | 0.00 | 0.00 | 0.00 | 33 | 1016.2 |
| 20260504170217 | 27 | 269 | 0.0 | 6.4 | 0.00 | 0.00 | 0.00 | 35 | 1016.1 |
| 20260504160135 | 26 | 298 | 0.0 | 6.4 | 0.00 | 0.00 | 0.00 | 36 | 1016.8 |
| 20260504151109 | 25 | 60 | 1.6 | 6.4 | 0.00 | 0.00 | 0.00 | 39 | 1017.2 |
| 20260504150606 | 25 | 299 | 3.2 | 8.0 | 0.00 | 0.00 | 0.00 | 39 | 1017.3 |
| 20260504150103 | 26 | 34 | 3.2 | 6.4 | 0.00 | 0.00 | 0.00 | 38 | 1017.2 |
| 20260504141032 | 24 | 118 | 1.6 | 6.4 | 0.00 | 0.00 | 0.00 | 46 | 1017.1 |
| 20260504140528 | 25 | 118 | 1.6 | 8.0 | 0.00 | 0.00 | 0.00 | 46 | 1017.2 |
| 20260504130453 | 22 | 242 | 1.6 | 6.4 | 0.00 | 0.00 | 0.00 | 63 | 1016.8 |
| 20260504110340 | 12 | 57 | 1.6 | 3.2 | 0.00 | 0.00 | 0.00 | 93 | 1016.6 |
| 20260504100257 | 12 | 67 | 1.6 | 3.2 | 0.00 | 0.00 | 0.00 | 90 | 1016.3 |
| 20260504081651 | 13 | 58 | 3.2 | 4.8 | 0.00 | 0.00 | 0.00 | 87 | 1016.3 |
| 20260504081147 | 13 | 74 | 3.2 | 3.2 | 0.00 | 0.00 | 0.00 | 87 | 1016.2 |
| 20260504080643 | 13 | 87 | 3.2 | 4.8 | 0.00 | 0.00 | 0.00 | 88 | 1016.3 |
| 20260504080140 | 13 | 89 | 3.2 | 4.8 | 0.00 | 0.00 | 0.00 | 89 | 1016.3 |
| 20260504070108 | 13 | 89 | 0.0 | 3.2 | 0.00 | 0.00 | 0.00 | 87 | 1016.6 |
| 20260504050456 | 15 | 43 | 0.0 | 3.2 | 0.00 | 0.00 | 0.00 | 82 | 1017.4 |
| 20260504045953 | 15 | 339 | 0.0 | 3.2 | 0.00 | 0.00 | 0.00 | 82 | 1017.4 |
| 20260504045449 | 15 | 86 | 1.6 | 3.2 | 0.00 | 0.00 | 0.00 | 81 | 1017.2 |
| 20260504044945 | 15 | 71 | 3.2 | 3.2 | 0.00 | 0.00 | 0.00 | 81 | 1017.5 |
| 20260504044443 | 15 | 338 | 0.0 | 3.2 | 0.00 | 0.00 | 0.00 | 81 | 1017.5 |
| 20260504043940 | 15 | 62 | 1.6 | 3.2 | 0.00 | 0.00 | 0.00 | 80 | 1017.7 |
| 20260504043437 | 15 | 22 | 1.6 | 3.2 | 0.00 | 0.00 | 0.00 | 80 | 1017.6 |
| 20260504042935 | 15 | 89 | 0.0 | 1.6 | 0.00 | 0.00 | 0.00 | 80 | 1017.6 |
| 20260504042431 | 15 | 70 | 1.6 | 3.2 | 0.00 | 0.00 | 0.00 | 79 | 1017.4 |
| 20260504041928 | 15 | 46 | 0.0 | 3.2 | 0.00 | 0.00 | 0.00 | 79 | 1017.6 |
| 20260504041424 | 15 | 12 | 3.2 | 3.2 | 0.00 | 0.00 | 0.00 | 79 | 1017.7 |
| 20260504040920 | 15 | 54 | 1.6 | 3.2 | 0.00 | 0.00 | 0.00 | 78 | 1017.7 |
| 20260504040418 | 15 | 8 | 1.6 | 3.2 | 0.00 | 0.00 | 0.00 | 78 | 1017.8 |
| 20260504035914 | 15 | 53 | 3.2 | 3.2 | 0.00 | 0.00 | 0.00 | 77 | 1017.6 |
| 20260504035411 | 15 | 51 | 1.6 | 3.2 | 0.00 | 0.00 | 0.00 | 78 | 1017.7 |
| 20260504034908 | 15 | 37 | 0.0 | 3.2 | 0.00 | 0.00 | 0.00 | 78 | 1017.6 |
| 20260504034405 | 16 | 67 | 0.0 | 3.2 | 0.00 | 0.00 | 0.00 | 77 | 1017.5 |
| 20260504033902 | 16 | 71 | 0.0 | 3.2 | 0.00 | 0.00 | 0.00 | 76 | 1017.5 |
| 20260504033400 | 16 | 55 | 0.0 | 3.2 | 0.00 | 0.00 | 0.00 | 76 | 1017.7 |
| 20260504032857 | 16 | 43 | 0.0 | 3.2 | 0.00 | 0.00 | 0.00 | 76 | 1017.6 |
| 20260504032354 | 16 | 13 | 0.0 | 3.2 | 0.00 | 0.00 | 0.00 | 75 | 1017.5 |
| 20260504031850 | 16 | 65 | 0.0 | 3.2 | 0.00 | 0.00 | 0.00 | 74 | 1017.3 |
| 20260504031347 | 16 | 34 | 1.6 | 3.2 | 0.00 | 0.00 | 0.00 | 75 | 1017.4 |
| 20260504030844 | 16 | 77 | 0.0 | 1.6 | 0.00 | 0.00 | 0.00 | 71 | 1017.4 |
| 20260504030341 | 16 | 105 | 0.0 | 3.2 | 0.00 | 0.00 | 0.00 | 71 | 1017.3 |
| 20260504025837 | 16 | 345 | 0.0 | 3.2 | 0.00 | 0.00 | 0.00 | 70 | 1017.4 |
| 20260504025334 | 16 | 118 | 0.0 | 1.6 | 0.00 | 0.00 | 0.00 | 70 | 1017.2 |
| 20260504024831 | 16 | 131 | 0.0 | 1.6 | 0.00 | 0.00 | 0.00 | 71 | 1017.3 |
| 20260504024327 | 16 | 118 | 0.0 | 1.6 | 0.00 | 0.00 | 0.00 | 68 | 1017.2 |
| 20260504023824 | 17 | 58 | 0.0 | 3.2 | 0.00 | 0.00 | 0.00 | 69 | 1017.2 |
| 20260504023321 | 17 | 103 | 0.0 | 1.6 | 0.00 | 0.00 | 0.00 | 68 | 1017.1 |
| 20260504022817 | 17 | 86 | 0.0 | 1.6 | 0.00 | 0.00 | 0.00 | 67 | 1017.0 |
| 20260504022314 | 17 | 33 | 0.0 | 3.2 | 0.00 | 0.00 | 0.00 | 65 | 1017.0 |
| 20260504021810 | 17 | 40 | 0.0 | 3.2 | 0.00 | 0.00 | 0.00 | 64 | 1017.0 |
| 20260504021308 | 17 | 7 | 0.0 | 1.6 | 0.00 | 0.00 | 0.00 | 65 | 1016.8 |
| 20260504020804 | 17 | 19 | 1.6 | 3.2 | 0.00 | 0.00 | 0.00 | 65 | 1016.8 |
| 20260504020301 | 18 | 62 | 0.0 | 3.2 | 0.00 | 0.00 | 0.00 | 64 | 1016.8 |
| 20260504015757 | 18 | 36 | 0.0 | 3.2 | 0.00 | 0.00 | 0.00 | 62 | 1016.7 |
| 20260504015254 | 18 | 45 | 0.0 | 3.2 | 0.00 | 0.00 | 0.00 | 64 | 1016.5 |
| 20260504014749 | 18 | 57 | 0.0 | 3.2 | 0.00 | 0.00 | 0.00 | 61 | 1016.6 |
| 20260504014246 | 18 | 60 | 1.6 | 3.2 | 0.00 | 0.00 | 0.00 | 58 | 1016.4 |
| 20260504013744 | 18 | 75 | 0.0 | 3.2 | 0.00 | 0.00 | 0.00 | 61 | 1016.5 |
| 20260504013241 | 19 | 53 | 0.0 | 3.2 | 0.00 | 0.00 | 0.00 | 60 | 1016.5 |
| 20260504012738 | 19 | 101 | 3.2 | 3.2 | 0.00 | 0.00 | 0.00 | 60 | 1016.2 |
| 20260504012236 | 19 | 102 | 3.2 | 3.2 | 0.00 | 0.00 | 0.00 | 61 | 1016.1 |
| 20260504011732 | 19 | 58 | 11.3 | 12.9 | 0.00 | 0.00 | 0.00 | 59 | 1016.0 |
| 20260504011229 | 20 | 17 | 1.6 | 4.8 | 0.00 | 0.00 | 0.00 | 58 | 1016.0 |
| 20260504010725 | 20 | 99 | 3.2 | 4.8 | 0.00 | 0.00 | 0.00 | 52 | 1015.7 |
| 20260504010221 | 19 | 100 | 3.2 | 3.2 | 0.00 | 0.00 | 0.00 | 52 | 1015.5 |
| 20260504005718 | 20 | 84 | 0.0 | 1.6 | 0.00 | 0.00 | 0.00 | 55 | 1015.2 |
| 20260504005215 | 20 | 122 | 0.0 | 1.6 | 0.00 | 0.00 | 0.00 | 56 | 1015.4 |
| 20260504004713 | 20 | 108 | 1.6 | 3.2 | 0.00 | 0.00 | 0.00 | 53 | 1015.4 |
| 20260504004209 | 20 | 218 | 0.0 | 3.2 | 0.00 | 0.00 | 0.00 | 53 | 1015.3 |
| 20260504003706 | 20 | 69 | 0.0 | 0.0 | 0.00 | 0.00 | 0.00 | 51 | 1015.4 |
| 20260504003203 | 20 | 29 | 0.0 | 1.6 | 0.00 | 0.00 | 0.00 | 49 | 1015.3 |
| 20260504002700 | 20 | 259 | 0.0 | 1.6 | 0.00 | 0.00 | 0.00 | 51 | 1015.2 |
| 20260504002157 | 21 | 350 | 0.0 | 3.2 | 0.00 | 0.00 | 0.00 | 48 | 1015.0 |
| 20260504001655 | 21 | 13 | 0.0 | 1.6 | 0.00 | 0.00 | 0.00 | 47 | 1015.0 |
| 20260504001151 | 21 | 98 | 0.0 | 1.6 | 0.00 | 0.00 | 0.00 | 46 | 1015.1 |
| 20260504000648 | 21 | 236 | 1.6 | 1.6 | 0.00 | 0.00 | 0.00 | 45 | 1015.1 |
| 20260504000145 | 21 | 344 | 0.0 | 1.6 | 0.00 | 0.00 | 0.00 | 44 | 1015.1 |
| 20260503235643 | 22 | 248 | 0.0 | 1.6 | 0.00 | 0.00 | 0.00 | 43 | 1015.0 |
| 20260503235139 | 22 | 177 | 0.0 | 3.2 | 0.00 | 0.00 | 0.00 | 43 | 1015.1 |
| 20260503234638 | 22 | 127 | 0.0 | 1.6 | 0.00 | 0.00 | 0.00 | 42 | 1014.8 |
| 20260503234136 | 22 | 225 | 1.6 | 4.8 | 0.00 | 0.00 | 0.00 | 42 | 1014.9 |
| 20260503233632 | 22 | 284 | 0.0 | 3.2 | 0.00 | 0.00 | 0.00 | 43 | 1014.9 |
| 20260503233128 | 23 | 268 | 3.2 | 3.2 | 0.00 | 0.00 | 0.00 | 41 | 1014.8 |
| 20260503232625 | 23 | 214 | 0.0 | 3.2 | 0.00 | 0.00 | 0.00 | 40 | 1014.9 |
| 20260503232122 | 23 | 177 | 1.6 | 9.7 | 0.00 | 0.00 | 0.00 | 39 | 1015.0 |
| 20260503231620 | 23 | 295 | 0.0 | 3.2 | 0.00 | 0.00 | 0.00 | 39 | 1015.1 |
| 20260503231116 | 23 | 201 | 0.0 | 3.2 | 0.00 | 0.00 | 0.00 | 38 | 1015.4 |
| 20260503230614 | 24 | 271 | 3.2 | 3.2 | 0.00 | 0.00 | 0.00 | 37 | 1015.2 |
| 20260503230111 | 24 | 311 | 0.0 | 3.2 | 0.00 | 0.00 | 0.00 | 36 | 1015.4 |
| 20260503225608 | 24 | 283 | 1.6 | 4.8 | 0.00 | 0.00 | 0.00 | 36 | 1015.0 |
| 20260503225108 | 25 | 337 | 0.0 | 3.2 | 0.00 | 0.00 | 0.00 | 37 | 1014.9 |
| 20260503224605 | 25 | 224 | 0.0 | 4.8 | 0.00 | 0.00 | 0.00 | 33 | 1014.8 |
| 20260503224103 | 25 | 325 | 1.6 | 3.2 | 0.00 | 0.00 | 0.00 | 35 | 1014.8 |
| 20260503223601 | 25 | 297 | 3.2 | 4.8 | 0.00 | 0.00 | 0.00 | 34 | 1015.0 |
| 20260503223056 | 25 | 28 | 4.8 | 8.0 | 0.00 | 0.00 | 0.00 | 33 | 1014.8 |
| 20260503222554 | 25 | 228 | 3.2 | 3.2 | 0.00 | 0.00 | 0.00 | 33 | 1014.9 |
| 20260503222052 | 25 | 218 | 0.0 | 3.2 | 0.00 | 0.00 | 0.00 | 34 | 1014.9 |
| 20260503221550 | 26 | 303 | 1.6 | 4.8 | 0.00 | 0.00 | 0.00 | 32 | 1015.1 |
| 20260503221047 | 26 | 334 | 3.2 | 3.2 | 0.00 | 0.00 | 0.00 | 32 | 1015.1 |
| 20260503220543 | 26 | 334 | 0.0 | 3.2 | 0.00 | 0.00 | 0.00 | 31 | 1015.2 |
| 20260503220040 | 26 | 321 | 3.2 | 4.8 | 0.00 | 0.00 | 0.00 | 34 | 1014.9 |
| 20260503215537 | 26 | 280 | 3.2 | 4.8 | 0.00 | 0.00 | 0.00 | 34 | 1015.2 |
| 20260503215034 | 26 | 307 | 3.2 | 6.4 | 0.00 | 0.00 | 0.00 | 33 | 1015.3 |
| 20260503214533 | 27 | 278 | 3.2 | 4.8 | 0.00 | 0.00 | 0.00 | 32 | 1015.1 |
| 20260503214029 | 27 | 121 | 1.6 | 4.8 | 0.00 | 0.00 | 0.00 | 31 | 1015.2 |
| 20260503213527 | 28 | 15 | 6.4 | 6.4 | 0.00 | 0.00 | 0.00 | 31 | 1015.2 |
| 20260503213024 | 27 | 294 | 1.6 | 3.2 | 0.00 | 0.00 | 0.00 | 32 | 1014.9 |
| 20260503212521 | 27 | 245 | 1.6 | 4.8 | 0.00 | 0.00 | 0.00 | 31 | 1014.8 |
| 20260503212018 | 27 | 110 | 4.8 | 6.4 | 0.00 | 0.00 | 0.00 | 31 | 1015.3 |
| 20260503211515 | 28 | 181 | 3.2 | 6.4 | 0.00 | 0.00 | 0.00 | 30 | 1015.1 |
| 20260503211011 | 28 | 318 | 3.2 | 6.4 | 0.00 | 0.00 | 0.00 | 31 | 1015.1 |
| 20260503210508 | 27 | 198 | 3.2 | 4.8 | 0.00 | 0.00 | 0.00 | 32 | 1015.1 |
| 20260503210003 | 27 | 226 | 1.6 | 6.4 | 0.00 | 0.00 | 0.00 | 32 | 1015.3 |
| 20260503205500 | 27 | 280 | 3.2 | 6.4 | 0.00 | 0.00 | 0.00 | 32 | 1015.2 |
| 20260503204956 | 27 | 275 | 4.8 | 8.0 | 0.00 | 0.00 | 0.00 | 34 | 1015.2 |
| 20260503204454 | 27 | 271 | 3.2 | 6.4 | 0.00 | 0.00 | 0.00 | 34 | 1015.4 |
| 20260503203950 | 27 | 336 | 6.4 | 11.3 | 0.00 | 0.00 | 0.00 | 33 | 1015.5 |
| 20260503203448 | 27 | 215 | 3.2 | 8.0 | 0.00 | 0.00 | 0.00 | 34 | 1015.2 |
| 20260503202944 | 27 | 327 | 4.8 | 6.4 | 0.00 | 0.00 | 0.00 | 35 | 1015.4 |
| 20260503202443 | 27 | 107 | 3.2 | 8.0 | 0.00 | 0.00 | 0.00 | 34 | 1015.5 |
| 20260503201941 | 27 | 31 | 4.8 | 4.8 | 0.00 | 0.00 | 0.00 | 36 | 1015.4 |
| 20260503201438 | 27 | 271 | 1.6 | 6.4 | 0.00 | 0.00 | 0.00 | 33 | 1015.5 |
| 20260503200935 | 27 | 296 | 3.2 | 6.4 | 0.00 | 0.00 | 0.00 | 35 | 1015.4 |
| 20260503200432 | 27 | 336 | 4.8 | 6.4 | 0.00 | 0.00 | 0.00 | 36 | 1015.6 |
| 20260503195928 | 27 | 357 | 3.2 | 6.4 | 0.00 | 0.00 | 0.00 | 34 | 1015.8 |
| 20260503195426 | 27 | 30 | 3.2 | 9.7 | 0.00 | 0.00 | 0.00 | 36 | 1015.9 |
| 20260503194922 | 27 | 150 | 6.4 | 8.0 | 0.00 | 0.00 | 0.00 | 36 | 1015.7 |
| 20260503194419 | 26 | 230 | 0.0 | 3.2 | 0.00 | 0.00 | 0.00 | 36 | 1016.0 |
| 20260503193914 | 26 | 73 | 8.0 | 8.0 | 0.00 | 0.00 | 0.00 | 38 | 1016.1 |
| 20260503193410 | 26 | 174 | 3.2 | 9.7 | 0.00 | 0.00 | 0.00 | 36 | 1016.0 |
| 20260503192906 | 26 | 43 | 3.2 | 4.8 | 0.00 | 0.00 | 0.00 | 39 | 1016.4 |
| 20260503192402 | 26 | 124 | 4.8 | 6.4 | 0.00 | 0.00 | 0.00 | 36 | 1016.3 |
| 20260503191858 | 26 | 309 | 3.2 | 4.8 | 0.00 | 0.00 | 0.00 | 38 | 1016.5 |
| 20260503191356 | 26 | 354 | 3.2 | 12.9 | 0.00 | 0.00 | 0.00 | 36 | 1016.5 |
| 20260503190852 | 26 | 330 | 6.4 | 8.0 | 0.00 | 0.00 | 0.00 | 37 | 1016.4 |
| 20260503190349 | 26 | 121 | 11.3 | 12.9 | 0.00 | 0.00 | 0.00 | 38 | 1016.7 |